TimeCDT,TemperatureF,Dew PointF,Humidity,Sea Level PressureIn,VisibilityMPH,Wind Direction,Wind SpeedMPH,Gust SpeedMPH,PrecipitationIn,Events,Conditions,WindDirDegrees,DateUTC
12:15 AM,50.9,41.5,70,29.95,10.0,NNE,27.6,34.5,N/A,,Overcast,20,2013-05-01 05:15:00
12:35 AM,49.1,42.1,77,29.94,7.0,NNE,32.2,38.0,0.02,Rain,Light Rain,30,2013-05-01 05:35:00
12:55 AM,49.1,42.8,79,29.99,10.0,NNE,21.9,29.9,0.02,Rain-Thunderstorm,Light Thunderstorms and Rain,20,2013-05-01 05:55:00
1:15 AM,48.2,43.2,83,29.98,10.0,NNE,24.2,27.6,0.06,Rain,Light Rain,20,2013-05-01 06:15:00
1:35 AM,47.8,41.9,80,29.98,10.0,NNE,29.9,39.1,0.06,Thunderstorm,Overcast,20,2013-05-01 06:35:00
1:55 AM,47.3,41.4,80,29.98,10.0,NNE,28.8,40.3,0.06,Thunderstorm,Overcast,20,2013-05-01 06:55:00
2:15 AM,46.8,42.6,85,30.04,10.0,North,24.2,33.4,N/A,Thunderstorm,Overcast,360,2013-05-01 07:15:00
2:35 AM,46.4,42.6,87,30.02,10.0,NNE,26.5,35.7,N/A,Rain,Light Rain,20,2013-05-01 07:35:00
2:55 AM,45.5,42.8,90,30.01,10.0,NNE,29.9,38.0,N/A,Rain,Light Rain,20,2013-05-01 07:55:00
3:15 AM,45.5,43.2,92,30.01,7.0,NNE,29.9,35.7,N/A,,Light Drizzle,30,2013-05-01 08:15:00
3:35 AM,45.0,43.2,93,30.07,5.0,North,24.2,35.7,N/A,,Overcast,360,2013-05-01 08:35:00
3:55 AM,44.8,43.9,97,30.04,4.0,NNE,25.3,31.1,0.02,Rain,Light Rain,30,2013-05-01 08:55:00
4:15 AM,44.4,43.5,97,30.06,5.0,NNE,25.3,33.4,0.01,Rain-Thunderstorm,Light Thunderstorms and Rain,20,2013-05-01 09:15:00
4:35 AM,44.1,43.9,99,30.06,4.0,NNE,17.3,27.6,0.03,Rain,Light Rain,20,2013-05-01 09:35:00
4:55 AM,43.7,43.7,100,30.05,5.0,NE,26.5,32.2,0.06,Rain,Light Rain,40,2013-05-01 09:55:00
5:15 AM,43.2,43.2,100,30.07,5.0,NNE,24.2,27.6,0.03,Rain,Light Rain,20,2013-05-01 10:15:00
5:35 AM,42.4,42.4,100,30.09,10.0,NNE,29.9,34.5,0.04,,Overcast,20,2013-05-01 10:35:00
5:55 AM,41.4,41.4,100,30.10,10.0,NNE,26.5,34.5,0.04,Rain-Thunderstorm,Light Thunderstorms and Rain,30,2013-05-01 10:55:00
6:15 AM,41.2,41.2,100,30.12,2.0,North,24.2,32.2,0.03,Rain,Light Rain,10,2013-05-01 11:15:00
6:35 AM,40.6,40.6,100,30.13,2.5,NNE,31.1,35.7,0.07,Rain,Light Rain,20,2013-05-01 11:35:00
6:55 AM,39.7,39.7,100,30.18,3.0,North,19.6,33.4,0.09,Rain,Light Rain,360,2013-05-01 11:55:00
7:15 AM,36.7,36.7,100,30.17,3.0,North,19.6,-,0.07,,Overcast,10,2013-05-01 12:15:00
7:35 AM,35.6,35.6,100,30.18,5.0,North,19.6,27.6,0.10,Rain,Light Rain,10,2013-05-01 12:35:00
7:55 AM,34.9,34.9,100,30.18,2.0,North,21.9,28.8,0.13,Snow-Thunderstorm,Light Thunderstorms and Snow,10,2013-05-01 12:55:00
8:15 AM,34.7,34.7,100,30.20,5.0,North,20.7,-,0.04,Rain-Thunderstorm,Light Thunderstorms and Rain,10,2013-05-01 13:15:00
8:35 AM,34.7,34.7,100,30.20,4.0,North,18.4,-,0.05,Rain,Light Rain,10,2013-05-01 13:35:00
9:15 AM,34.9,34.9,100,30.21,10.0,NNE,24.2,31.1,0.03,Rain-Thunderstorm,Light Thunderstorms and Rain,20,2013-05-01 14:15:00
9:35 AM,34.9,34.9,100,30.20,7.0,NNE,21.9,26.5,0.06,Rain,Light Rain,20,2013-05-01 14:35:00
9:55 AM,35.1,35.1,100,30.22,4.0,North,21.9,28.8,0.09,Rain,Light Rain,10,2013-05-01 14:55:00
10:15 AM,35.1,35.1,100,30.22,3.0,NNE,20.7,28.8,0.03,Rain,Light Rain,20,2013-05-01 15:15:00
10:35 AM,35.2,35.2,100,30.24,4.0,NNE,21.9,28.8,0.06,,Light Drizzle,20,2013-05-01 15:35:00
11:15 AM,35.6,35.6,100,30.25,1.8,NNE,23.0,28.8,0.01,Rain,Light Rain,20,2013-05-01 16:15:00
11:35 AM,35.6,35.6,100,30.25,2.0,NNE,23.0,31.1,0.01,Rain,Light Rain,20,2013-05-01 16:35:00
11:55 AM,35.8,35.8,100,30.27,3.0,NNE,26.5,32.2,0.01,,Overcast,20,2013-05-01 16:55:00
12:15 PM,36.0,36.0,100,30.27,2.5,NNE,29.9,34.5,0.01,Rain,Light Rain,20,2013-05-01 17:15:00
12:35 PM,35.4,35.4,100,30.28,1.5,North,24.2,31.1,0.01,Rain,Light Rain,10,2013-05-01 17:35:00
12:55 PM,33.8,33.8,100,30.30,1.8,North,27.6,35.7,0.03,Rain,Light Rain,10,2013-05-01 17:55:00
1:15 PM,34.2,34.2,100,30.30,2.5,North,25.3,35.7,N/A,Rain,Light Rain,10,2013-05-01 18:15:00
1:35 PM,34.3,34.3,100,30.29,2.5,NNE,23.0,29.9,0.01,Rain,Light Rain,20,2013-05-01 18:35:00
1:55 PM,33.8,33.8,100,30.30,2.0,North,20.7,26.5,0.03,Snow,Light Snow,10,2013-05-01 18:55:00
2:15 PM,33.8,33.8,100,30.31,3.0,North,24.2,32.2,0.01,Snow,Light Snow,10,2013-05-01 19:15:00
2:35 PM,33.8,33.8,100,30.32,3.0,North,19.6,-,0.01,Rain,Light Rain,10,2013-05-01 19:35:00
3:15 PM,34.0,34.0,100,30.33,2.5,North,25.3,29.9,0.01,Rain,Light Rain,10,2013-05-01 20:15:00
3:35 PM,34.0,34.0,100,30.34,2.0,North,20.7,27.6,0.03,Snow-Thunderstorm,Light Thunderstorms and Snow,10,2013-05-01 20:35:00
3:55 PM,34.0,34.0,100,30.35,2.0,North,23.0,28.8,0.05,Snow,Light Snow,10,2013-05-01 20:55:00
4:15 PM,34.2,34.2,100,30.36,2.0,North,19.6,23.0,0.01,Snow,Light Snow,360,2013-05-01 21:15:00
4:35 PM,34.2,34.2,100,30.35,1.5,North,19.6,24.2,0.02,Snow,Light Snow,360,2013-05-01 21:35:00
4:55 PM,34.2,34.2,100,30.36,1.5,North,18.4,28.8,0.02,Snow,Light Snow,360,2013-05-01 21:55:00
5:15 PM,34.2,34.2,100,30.36,1.8,North,21.9,26.5,0.01,Snow,Light Snow,360,2013-05-01 22:15:00
5:35 PM,34.0,34.0,100,30.36,1.8,North,20.7,28.8,0.02,Snow,Light Snow,360,2013-05-01 22:35:00
5:55 PM,34.0,34.0,100,30.37,1.2,North,20.7,29.9,0.02,Snow,Light Snow,360,2013-05-01 22:55:00
6:15 PM,34.0,34.0,100,30.38,1.2,North,18.4,31.1,N/A,,Overcast,360,2013-05-01 23:15:00
6:35 PM,34.0,34.0,100,30.39,1.5,North,21.9,27.6,N/A,Snow,Light Snow,360,2013-05-01 23:35:00
6:55 PM,34.0,34.0,100,30.38,1.2,North,24.2,28.8,N/A,Snow,Light Snow,10,2013-05-01 23:55:00
7:15 PM,34.2,34.2,100,30.38,1.2,North,27.6,35.7,0.01,Snow,Light Snow,10,2013-05-02 00:15:00
7:35 PM,34.0,34.0,100,30.40,1.0,North,17.3,-,0.02,Snow,Light Snow,10,2013-05-02 00:35:00
7:55 PM,34.0,34.0,100,30.39,1.2,North,19.6,25.3,0.02,Snow,Light Snow,10,2013-05-02 00:55:00
8:35 PM,34.2,34.2,100,30.37,5.0,North,24.2,31.1,N/A,Rain,Rain,10,2013-05-02 01:35:00
8:55 PM,34.5,34.5,100,30.40,7.0,North,23.0,27.6,0.02,,Light Drizzle,10,2013-05-02 01:55:00
9:35 PM,34.9,34.7,99,30.41,5.0,North,23.0,27.6,0.02,Snow,Light Snow,10,2013-05-02 02:35:00
9:55 PM,35.2,33.8,94,30.42,10.0,North,18.4,-,0.04,Snow,Light Snow,10,2013-05-02 02:55:00
10:15 PM,35.6,33.4,92,30.44,10.0,North,12.7,-,0.01,Snow,Light Snow,10,2013-05-02 03:15:00
10:35 PM,35.1,33.8,95,30.46,7.0,North,9.2,-,0.01,Snow,Light Snow,10,2013-05-02 03:35:00
10:55 PM,34.9,34.2,97,30.46,10.0,North,4.6,-,0.01,Snow,Light Snow,10,2013-05-02 03:55:00
11:15 PM,35.1,34.0,96,30.47,10.0,North,5.8,-,N/A,,Overcast,360,2013-05-02 04:15:00
11:35 PM,35.8,33.3,91,30.47,10.0,North,10.4,-,N/A,,Overcast,350,2013-05-02 04:35:00
11:55 PM,36.0,33.3,90,30.46,10.0,North,12.7,-,0.01,,Overcast,350,2013-05-02 04:55:00